Regional Weather Roundup
Issued by NWS

Home | Current Version | Previous Version | Text Only | Print | Product List | Glossary Off
Versions: 1 2 3 4 5 6 7 8 9 10 11 12 13 14 15 16 17 18 19 20 21 22 23 24 25 26 27 28 29 30 31 32 33 34 35 36 37 38 39 40 41 42 43 44 45 46 47 48 49 50

000
ASUS43 KLMK 290310
RWRKY
KENTUCKY REGIONAL WEATHER ROUNDUP
NATIONAL WEATHER SERVICE LOUISVILLE KY
1000 PM EST SUN DEC 28 2014

NOTE "FAIR" INDICATES FEW OR NO CLOUDS BELOW 12,000 FEET
WITH NO SIGNIFICANT WEATHER AND/OR OBSTRUCTIONS TO VISIBILITY.

KYZ001>023-026-027-061>063-070>075-290400-
WESTERN AND SOUTH CENTRAL KENTUCKY

CITY           SKY/WX    TMP DP  RH WIND       PRES   REMARKS
PADUCAH        CLOUDY    34  28  79 NE7       30.21R WCI  28
HENDERSON      CLOUDY    34  27  75 N7        30.21S WCI  28
OWENSBORO      CLOUDY    35  30  82 N5        30.21S WCI  31
HOPKINSVILLE   CLOUDY    34  32  92 N5        30.18F FOG     WCI  30
BOWLING GREEN  CLOUDY    37  33  85 N3        30.18S
GLASGOW        CLOUDY    36  36 100 N6        30.17S FOG     WCI  31
$$

KYZ024-025-028>034-038-045-046-053-290400-
NORTH CENTRAL KENTUCKY

CITY           SKY/WX    TMP DP  RH WIND       PRES   REMARKS
LOUISVILLE/SDF CLOUDY    36  29  75 N6        30.20S WCI  31
LOUISVILLE/LOU CLOUDY    36  29  75 N3        30.20S
FORT KNOX      CLOUDY    34  31  88 NE3       30.17S
$$

KYZ035>037-039>044-047>052-055>060-089>105-290400-
NORTHEAST KENTUCKY

CITY           SKY/WX    TMP DP  RH WIND       PRES   REMARKS
LEXINGTON      CLOUDY    33  31  92 NE5       30.18S WCI  29
COVINGTON      CLOUDY    33  26  75 N5        30.18F WCI  29
FRANKFORT      CLOUDY    34  30  85 N3        30.17F
$$

KYZ054-064>069-076>088-106>120-290400-
SOUTHEAST KENTUCKY

CITY           SKY/WX    TMP DP  RH WIND       PRES   REMARKS
JACKSON        LGT RAIN  37  36  96 CALM      30.14F FOG
LONDON         LGT RAIN  41  37  86 CALM      30.13F
SOMERSET       CLOUDY    36  36 100 NE3       30.16F
MIDDLESBORO    RAIN      44  43  97 CALM      30.13S
MONTICELLO     CLOUDY    40  40 100 NE6       30.17S
$$



USA.gov is the U.S. government's official web portal to all federal, state and local government web resources and services.